Location: Chervonnoye
(48.6000°N, 34.4000°E)
Time: 18:54:48
(UTC+00:00)

N. Korean satellite - Pass Details

Date: 02 October 2021
Orbit: 450 x 495 km, 97.3° (Epoch: 16 October)

Event Time Altitude Azimuth Distance (km) Brightness Sun altitude
Rises 01:48:01 0° 34° (NNE) 2,553 11.0 -19.6°
Reaches altitude 10° 01:51:31 10° 71° (ENE) 1,677 10.5 -19.1°
Maximum altitude 01:52:37 11° 89° (E) 1,609 10.3 -18.9°
Drops below altitude 10° 01:53:43 10° 106° (ESE) 1,679 10.1 -18.7°
Sets 01:57:14 0° 143° (SE) 2,562 10.5 -18.2°
